[Iaude] MPEC K19: 2019 EL7 [a=42.29,e=0.02,i=2.8,H=8.3]
    mpec at cfa.harvard.edu 
    mpec at cfa.harvard.edu
       
    Fri May 17 15:46:00 EDT 2024
    
    
  
M.P.E.C. 2024-K19                                  Issued 2024 May 17, 19:44 UT
     The Minor Planet Electronic Circulars contain information on unusual
         minor planets, routine data on comets and natural satellites,
         and occasional editorial announcements.  They are published
    on behalf of Division F of the International Astronomical Union by the
          Minor Planet Center, Smithsonian Astrophysical Observatory,
                          Cambridge, MA 02138, U.S.A.
			  
             Prepared using the Tamkin Foundation Computer Network
                              MPC at CFA.HARVARD.EDU
            URL https://www.minorplanetcenter.net/    ISSN 1523-6714
                                    2019 EL7                                    
Observations:
     K19E07L 4C2018 03 18.46308 11 45 38.68 +03 36 43.4          24.1 i1EK019T09
     K19E07L 4C2018 03 18.50571 11 45 38.48 +03 36 44.4          24.0 i1EK019T09
     K19E07L 4C2018 03 18.57871 11 45 38.16 +03 36 46.4          24.0 i1EK019T09
     K19E07L 4C2018 04 24.37247 11 43 09.01 +03 51 56.1          23.4 z1EK019T09
     K19E07L 4C2018 04 24.40148 11 43 08.91 +03 51 56.3          23.5 z1EK019T09
     K19E07L 4C2018 04 24.44523 11 43 08.77 +03 51 57.3          23.8 z1EK019T09
     K19E07L 4C2018 04 24.49606 11 43 08.60 +03 51 57.8          24.1 z1EK019T09
     K19E07L 4C2019 02 04.58875 11 53 12.93 +02 44 02.3          25.7 g1EK019T09
     K19E07L 4C2019 02 04.63313 11 53 12.78 +02 44 03.3          26.1 g1EK019T09
     K19E07L 4C2019 02 04.66250 11 53 12.69 +02 44 03.8          25.4 g1EK019T09
     K19E07L 4C2019 02 05.45789 11 53 10.27 +02 44 20.9          24.5 i1EK019T09
     K19E07L 4C2019 02 05.47392 11 53 10.22 +02 44 21.2          24.1 i1EK019T09
     K19E07L 4C2019 02 05.51157 11 53 10.09 +02 44 22.1          24.6 i1EK019T09
     K19E07L 4C2019 02 05.51425 11 53 10.09 +02 44 22.1          24.6 i1EK019T09
     K19E07L*4C2019 03 08.35114 11 51 11.30 +02 57 37.4          24.5 r1EK019T09
     K19E07L 4C2019 03 08.36022 11 51 11.26 +02 57 37.5          24.5 r1EK019T09
     K19E07L 4C2019 03 08.40431 11 51 11.08 +02 57 38.9          24.9 r1EK019T09
     K19E07L 4C2019 03 08.43604 11 51 10.93 +02 57 39.7          24.4 r1EK019T09
Observer details:
T09 Subaru Telescope, Maunakea.  Observers H. Aihara, Y. AlSayyad, M. Ando, R.
    Armstrong, J. Bosch, E. Egami, H. Furusawa, J. Furusawa, S. Harasawa, Y.
    Harikane, B.-C. Hsieh, H. Ikeda, K. Ito, I. Iwata, T. Kodama, M. Koike, M.
    Kokubo, Y. Komiyama, X. Li, Y. Liang, Y.-T. Lin, R. H. Lupton, N. B. Lust,
    L. A. MacArthur, K. Mawatari, S. Mineo, H. Miyatake, S. Miyazaki, S. More,
    T. Morishima, H. Murayama, K. Nakajima, F. Nakata, A. J. Nishizawa, M.
    Oguri, N. Okabe, Y. Okura, Y. Ono, K. Osato, M. Ouchi, Y.-C. Pan, A. A.
    Plazas Malagon, P. A. Price, S. L. Reed, E. S. Rykoff, T. Shibuya, M.
    Simunovic, M. A. Strauss, K. Sugimori, Y. Suto, N. Suzuki, M. Takada, Y.
    Takagi, T. Takata, S. Takita, M. Tanaka, S. Tang, D. S. Taranu, T. Terai,
    Y. Toba, E. L. Turner, H. Uchiyama, B. Vijarnwannaluk, C. Z. Waters, Y.
    Yamada, N. Yamamoto, T. Yamashita.  Measurer A. Yamauchi.  8.2-m f/2.0
    reflector + CCD(HSC).
Orbital elements:
2019 EL7                                                                        
Epoch 2024 Mar. 31.0 TT = JDT 2460400.5                 Alexandersen            
M 129.74763              (2000.0)            P               Q                  
n   0.00358417     Peri.   15.41016     +0.61609614     -0.78713426             
a  42.2873259      Node    36.57195     +0.71741863     +0.54552705             
e   0.0152267      Incl.    2.79675     +0.32517081     +0.28778446             
P 275              H    8.33          G   0.15           U   7                  
Residuals in seconds of arc
180318 T09  0.0   0.2+    180424 T09  0.0   0.4-    190205 T09  0.1-  0.0
180318 T09  0.1-  0.0     190204 T09  0.1+  0.0     190205 T09  0.0   0.0
180318 T09  0.1+  0.1-    190204 T09  0.1-  0.1+    190308 T09  0.1-  0.1+
180424 T09  0.1-  0.3+    190204 T09  0.0   0.1-    190308 T09  0.1-  0.1-
180424 T09  0.1-  0.1-    190205 T09  0.0   0.0     190308 T09  0.2+  0.1+
180424 T09  0.0   0.1+    190205 T09  0.0   0.1-    190308 T09  0.0   0.0
Ephemeris:
2019 EL7                 a,e,i = 42.29, 0.02, 3                  q = 41.6434
Date    TT    R. A. (2000) Decl.     Delta      r    Elong.  Phase     V
2024 04 17    12 11 59.6 +00 25 03  41.7906 42.7053   155.4     0.6    24.7
...
2024 05 02    12 11 04.7 +00 30 31  41.9226 42.7057   140.6     0.9    24.7
...
2024 05 10    12 10 40.4 +00 32 51  42.0146 42.7060   132.7     1.0    24.8
...
2024 05 16    12 10 24.8 +00 34 18  42.0921 42.7061   126.9     1.1    24.8
2024 05 17    12 10 22.5 +00 34 30  42.1056 42.7062   125.9     1.1    24.8
2024 05 18    12 10 20.2 +00 34 43  42.1193 42.7062   124.9     1.1    24.8
...
2024 05 24    12 10 08.0 +00 35 46  42.2050 42.7064   119.1     1.2    24.8
...
2024 06 01    12 09 56.1 +00 36 41  42.3268 42.7066   111.4     1.3    24.8
...
2024 06 16    12 09 47.7 +00 36 52  42.5717 42.7071    97.0     1.4    24.8
M. P. C. Staff               (C) Copyright 2024 MPC           M.P.E.C. 2024-K19
    
    
More information about the Iaude
mailing list